Regional Weather Roundup
Issued by NWS

Home | Current Version | Previous Version | Graphics & Text | Print | Product List | Glossary On
Versions: 1 2 3 4 5 6 7 8 9 10 11 12 13 14 15 16 17 18 19 20 21 22 23 24 25 26 27 28 29 30 31 32 33 34 35 36 37 38 39 40 41 42 43 44 45 46 47 48 49 50
213
ASUS43 KLSX 241210
RWRMO

WEATHER SUMMARY FOR MISSOURI
NATIONAL WEATHER SERVICE SPRINGFIELD MO
700 AM CDT MON JUL 24 2017

NOTE: "FAIR" INDICATES FEW OR NO CLOUDS BELOW 12,000 FEET WITH NO
       SIGNIFICANT WEATHER AND/OR OBSTRUCTIONS TO VISIBILITY.
       CURRENT SKY AND/OR WEATHER CONDITIONS ARE NOT AVAILABLE FOR
       CHILLICOTHE AND FARMINGTON.

MOZ001>031-035>038-043-044-053-054-241300-
...NORTHERN AND WESTERN MISSOURI...

CITY           SKY/WX    TMP DP  RH WIND       PRES   REMARKS
KANSAS CTY INT MOCLDY    70  65  84 NE7       30.00R
6HR MIN TEMP:  69; 6HR MAX TEMP:  76;

KANSAS C DTWN  PTCLDY    72  65  78 NE7       29.98R
6HR MIN TEMP:  72; 6HR MAX TEMP:  79;

LEE`S SUMMIT   CLEAR     71  66  84 NE6       30.00R
6HR MIN TEMP:  71; 6HR MAX TEMP:  79;

ST JOSEPH      CLEAR     66  65  96 N3        30.01R
6HR MIN TEMP:  65; 6HR MAX TEMP:  70;

CHILLICOTHE      N/A     67  64  90 VRB3      30.01R
6HR MIN TEMP:  66; 6HR MAX TEMP:  73;

KIRKSVILLE     CLEAR     65  62  90 N7        30.01R
6HR MIN TEMP:  63; 6HR MAX TEMP:  68;


$$
MOZ066>068-077>081-088>096-101>105-241300-
...SOUTHWEST MISSOURI...

CITY           SKY/WX    TMP DP  RH WIND       PRES   REMARKS
SPRINGFIELD    CLEAR     73  69  87 NW3       29.98R
6HR MIN TEMP:  71; 6HR MAX TEMP:  75;

JOPLIN         CLEAR     71  71 100 SW3       29.97R
6HR MIN TEMP:  70; 6HR MAX TEMP:  77;

BRANSON        PTCLDY    72  70  94 CALM      29.99R

$$
MOZ032>034-039>042-045>050-055>058-069>072-241300-
...CENTRAL MISSOURI...

CITY           SKY/WX    TMP DP  RH WIND       PRES   REMARKS
COLUMBIA       CLOUDY    70  66  87 NE7       29.98R
6HR MIN TEMP:  69; 6HR MAX TEMP:  75;

JEFFERSON CITY CLEAR     74  68  81 CALM      29.96R
6HR MIN TEMP:  73; 6HR MAX TEMP:  76;

ROLLA          CLEAR     71  68  90 NE3       29.97R
6HR MIN TEMP:  68; 6HR MAX TEMP:  74;

SEDALIA        PTCLDY    71  70  96 NE6       29.99R
6HR MIN TEMP:  71; 6HR MAX TEMP:  78;

WHITEMAN AFB   PTCLDY    69  69 100 NE6       29.97R
OSAGE BEACH    CLEAR     71  69  93 CALM      29.97R

$$
MOZ051-052-059>065-241300-
...EAST CENTRAL MISSOURI...

CITY           SKY/WX    TMP DP  RH WIND       PRES   REMARKS
ST LOUIS INTL  MOSUNNY   75  65  70 N5        29.95R
6HR MIN TEMP:  73; 6HR MAX TEMP:  80;

SPIRIT OF STL  MOSUNNY   74  67  78 CALM      29.95R
6HR MIN TEMP:  69; 6HR MAX TEMP:  76;

ST CHARLES     SUNNY     72  66  81 N6        29.94R
6HR MIN TEMP:  71; 6HR MAX TEMP:  76;


$$
MOZ072>076-082>087-097>100-106>115-241300-
...SOUTH CENTRAL AND SOUTHEAST MISSOURI...

CITY           SKY/WX    TMP DP  RH WIND       PRES   REMARKS
CAPE GIRARDEAU CLOUDY    73  70  90 CALM      29.92R
6HR MIN TEMP:  70; 6HR MAX TEMP:  76;

FARMINGTON     SUNNY     71  68  90 CALM      29.96R
6HR MIN TEMP:  68; 6HR MAX TEMP:  73;

POPLAR BLUFF   CLOUDY    74  73  97 CALM      29.92R
6HR MIN TEMP:  72; 6HR MAX TEMP:  76;

WEST PLAINS    CLOUDY    69  65  86 N3        29.96S
6HR MIN TEMP:  67; 6HR MAX TEMP:  72;


$$




USA.gov is the U.S. government's official web portal to all federal, state and local government web resources and services.